This demonstration page uses our WeatherBlox Daily Observations layout. Learn more.

Left ArrowRight Arrow

39.51506, -84.39828

Hourly Observations for February 1, 2019

Temp ( °F °C ) Dew Point ( °F °C ) Humidity (%) Winds ( mph kmh ) Pressure ( in mb ) Visibility ( mi km ) Precip ( " mm )
12:15 am 00:15 Cloudy with Snow 13 -10.6 10 -12.2 88 88 NNE 7 11 30.40 1029 1 2 0.00 0.00
12:35 am 00:35 Cloudy with Snow 13 -10.5 10 -12.2 87 87 NE 6 9 30.39 1029 1 1 0.01 0.25
12:55 am 00:55 Cloudy with Snow 13 -10.5 10 -12.2 87 87 NE 5 7 30.38 1029 1 2 0.01 0.25
1:15 am 01:15 Cloudy with Snow 13 -10.5 10 -12.2 87 87 NNE 5 7 30.38 1029 1 2 0.00 0.00
1:35 am 01:35 Cloudy with Snow 13 -10.4 10 -12 88 88 NE 5 7 30.36 1028 1 2 0.01 0.25
1:55 am 01:55 Cloudy with Light Snow 14 -10.2 11 -11.8 88 88 NE 3 6 30.34 1028 2 2 0.01 0.25
2:15 am 02:15 Cloudy with Light Snow 14 -10.1 11 -11.8 88 88 Calm 30.34 1028 2 2 0.00 0.00
2:35 am 02:35 Cloudy with Light Snow 14 -10 11 -11.7 88 88 Calm 30.34 1028 2 3 0.00 0.00
2:55 am 02:55 Cloudy with Light Snow 14 -9.9 11 -11.7 87 87 Calm 30.34 1028 3 5 0.00 0.00
3:15 am 03:15 Cloudy with Light Snow 14 -9.8 11 -11.5 88 88 Calm 30.34 1028 2 3 0.01 0.25
3:35 am 03:35 Cloudy with Light Snow 14 -9.8 11 -11.4 88 88 Calm 30.33 1027 3 4 0.02 0.51
3:55 am 03:55 Cloudy with Light Snow 15 -9.6 11 -11.4 87 87 Calm 30.33 1027 4 6 0.02 0.51
4:15 am 04:15 Cloudy with Light Snow 15 -9.5 12 -11.2 88 88 NNE 5 7 30.32 1027 4 6 0.00 0.00
4:35 am 04:35 Cloudy with Light Snow 15 -9.5 12 -11.3 87 87 NE 5 7 30.32 1027 5 8 0.01 0.25
4:55 am 04:55 Cloudy with Light Snow 15 -9.5 11 -11.4 86 86 ENE 6 9 30.31 1026 10 16 0.01 0.25
5:15 am 05:15 Cloudy with Light Snow 15 -9.4 11 -11.5 85 85 NE 6 9 30.32 1027 10 16 0.00 0.00
5:35 am 05:35 Cloudy with Light Snow 15 -9.4 11 -11.5 85 85 ENE 5 7 30.31 1026 10 16 0.00 0.00
5:55 am 05:55 Cloudy with Light Snow 15 -9.4 11 -11.5 85 85 ENE 7 11 30.32 1027 10 16 0.00 0.00
6:15 am 06:15 Cloudy 15 -9.5 11 -11.5 86 86 ENE 7 11 30.32 1027 10 16 0.00 0.00
6:35 am 06:35 Cloudy 15 -9.4 12 -11.3 86 86 ENE 6 9 30.33 1027 10 16 0.00 0.00
6:55 am 06:55 Cloudy with Light Snow 15 -9.3 12 -11.2 86 86 E 6 9 30.33 1027 10 16 0.00 0.00
7:15 am 07:15 Cloudy with Light Snow 15 -9.4 12 -11.1 88 88 ENE 6 9 30.33 1027 10 16 0.00 0.00
7:35 am 07:35 Cloudy 15 -9.3 12 -11 88 88 ENE 3 6 30.34 1027 10 16 0.00 0.00
7:55 am 07:55 Cloudy with Mist and Fog 15 -9.2 13 -10.8 88 88 ENE 5 7 30.34 1027 4 6 0.00 0.00
8:15 am 08:15 Cloudy with Mist and Fog 15 -9.3 13 -10.6 90 90 ENE 3 6 30.35 1028 5 8 0.00 0.00
8:35 am 08:35 Cloudy with Mist and Fog 15 -9.2 13 -10.5 90 90 Calm 30.35 1028 7 11 0.00 0.00
8:55 am 08:55 Cloudy 16 -9.1 13 -10.5 90 90 ENE 3 6 30.36 1028 10 16 0.00 0.00
9:15 am 09:15 Cloudy 16 -9 13 -10.5 89 89 N 7 11 30.37 1028 7 11 0.00 0.00
9:35 am 09:35 Cloudy with Mist and Fog 16 -9 13 -10.5 89 89 NNE 5 7 30.37 1028 7 11 0.00 0.00
9:55 am 09:55 Cloudy 16 -8.9 13 -10.7 87 87 NNE 5 7 30.38 1029 7 11 0.00 0.00
10:15 am 10:15 Cloudy 16 -8.7 13 -10.5 87 87 NNE 5 7 30.38 1029 7 11 0.00 0.00
10:35 am 10:35 Cloudy 17 -8.6 13 -10.6 86 86 NE 3 6 30.37 1028 10 16 0.00 0.00
10:55 am 10:55 Cloudy 17 -8.3 13 -10.5 84 84 Calm 30.39 1029 10 16 0.00 0.00
11:15 am 11:15 Cloudy 18 -8 13 -10.4 83 83 NNE 6 9 30.39 1029 10 16 0.00 0.00
11:35 am 11:35 Cloudy 18 -7.7 14 -10.2 82 82 NE 5 7 30.39 1029 10 16 0.00 0.00
11:55 am 11:55 Cloudy 19 -7.5 14 -10.1 82 82 NE 5 7 30.39 1029 10 16 0.00 0.00
12:15 pm 12:15 Cloudy 19 -7.3 14 -10.1 81 81 Calm 30.39 1029 10 16 0.00 0.00
12:30 pm 12:30 Cloudy 19 -7 14 -9.9 80 80 Calm 30.38 1029 10 16 0.00 0.00
12:55 pm 12:55 Cloudy 20 -6.7 15 -9.7 79 79 E 3 6 30.37 1029 10 16 0.00 0.00
1:15 pm 13:15 Cloudy 20 -6.4 15 -9.6 78 78 Calm 30.36 1028 10 16 0.00 0.00
1:35 pm 13:35 Cloudy 21 -6 15 -9.2 78 78 E 3 6 30.36 1028 10 16 0.00 0.00
1:55 pm 13:55 Cloudy 22 -5.8 15 -9.2 77 77 NE 3 6 30.36 1028 10 16 0.00 0.00
2:15 pm 14:15 Cloudy 22 -5.7 15 -9.3 76 76 ENE 3 6 30.36 1028 10 16 0.00 0.00
2:35 pm 14:35 Cloudy 22 -5.5 16 -9 77 77 NE 5 7 30.36 1028 10 16 0.00 0.00
2:55 pm 14:55 Cloudy 22 -5.3 16 -9 76 76 Calm 30.36 1028 10 16 0.00 0.00
3:15 pm 15:15 Cloudy 23 -5 16 -8.8 75 75 NNE 3 6 30.37 1028 10 16 0.00 0.00
3:35 pm 15:35 Cloudy 23 -4.9 16 -8.8 74 74 Calm 30.37 1028 10 16 0.00 0.00
3:55 pm 15:55 Cloudy 23 -4.8 16 -8.8 74 74 Calm 30.38 1029 10 16 0.00 0.00
4:15 pm 16:15 Cloudy 24 -4.7 17 -8.6 74 74 NNE 3 6 30.38 1029 10 16 0.00 0.00
4:35 pm 16:35 Cloudy 24 -4.6 17 -8.5 74 74 Calm 30.38 1029 10 16 0.00 0.00
4:55 pm 16:55 Cloudy 24 -4.5 17 -8.3 75 75 NE 3 6 30.38 1029 10 16 0.00 0.00
5:15 pm 17:15 Mostly Cloudy 23 -4.8 17 -8.5 76 76 ENE 3 6 30.38 1029 10 16 0.00 0.00
5:35 pm 17:35 Partly Cloudy 22 -5.5 15 -9.2 75 75 E 5 7 30.38 1029 10 16 0.00 0.00
5:55 pm 17:55 Mostly Cloudy 21 -5.9 15 -9.3 77 77 ENE 5 7 30.38 1029 10 16 0.00 0.00
6:15 pm 18:15 Cloudy 23 -5.2 16 -8.8 76 76 E 3 6 30.39 1029 10 16 0.00 0.00
6:35 pm 18:35 Cloudy 22 -5.8 16 -9.1 78 78 ENE 3 6 30.39 1029 10 16 0.00 0.00
6:55 pm 18:55 Clear 20 -6.7 14 -9.8 79 79 ENE 6 9 30.39 1029 10 16 0.00 0.00
7:15 pm 19:15 Clear 19 -7.2 14 -10.2 79 79 E 6 9 30.41 1030 10 16 0.00 0.00
7:35 pm 19:35 Clear 19 -7.2 14 -10 81 81 ENE 5 7 30.42 1030 10 16 0.00 0.00
7:55 pm 19:55 Cloudy 18 -7.6 14 -10.1 82 82 Calm 30.42 1030 10 16 0.00 0.00
8:15 pm 20:15 Cloudy 19 -7.5 14 -9.9 83 83 ENE 3 6 30.42 1030 10 16 0.00 0.00
8:35 pm 20:35 Cloudy 19 -7 15 -9.6 82 82 Calm 30.42 1030 10 16 0.00 0.00
8:55 pm 20:55 Cloudy 20 -6.9 15 -9.7 81 81 Calm 30.41 1030 10 16 0.00 0.00
9:15 pm 21:15 Cloudy 19 -7.4 14 -9.9 83 83 Calm 30.41 1030 10 16 0.00 0.00
9:35 pm 21:35 Cloudy 19 -7.5 15 -9.7 84 84 Calm 30.42 1030 10 16 0.00 0.00
9:55 pm 21:55 Mostly Cloudy 18 -7.6 14 -9.8 84 84 Calm 30.42 1030 10 16 0.00 0.00
10:15 pm 22:15 Partly Cloudy 17 -8.1 14 -10 86 86 Calm 30.41 1030 10 16 0.00 0.00
10:35 pm 22:35 Clear 17 -8.5 14 -10.1 88 88 Calm 30.40 1029 10 16 0.00 0.00
10:55 pm 22:55 Clear 15 -9.4 13 -10.5 92 92 NNE 3 6 30.40 1030 7 11 0.00 0.00
11:15 pm 23:15 Clear with Mist and Fog 14 -10.2 12 -11.2 92 92 Calm 30.41 1030 5 8 0.00 0.00
11:35 pm 23:35 Clear with Mist and Fog 12 -10.9 10 -12.1 91 91 Calm 30.42 1030 7 11 0.00 0.00
11:55 pm 23:55 Clear with Mist and Fog 12 -11.1 10 -12.1 92 92 Calm 30.43 1030 5 8 0.00 0.00

Powered by AerisWeather